EW0890 Weather Reports


time (UTC)temp
F
wind
direction
speed
knots
gust
knots
rain 1hr
in
rain 24hr
in
rain mn
in
humidity
%
barometer
mb
20221203051600 50 154 14.8 22.6 0.00 0.00 0.00 91 1009.5
20221203050108 50 154 14.8 22.6 0.00 0.00 0.00 91 1009.3
20221203044605 50 154 14.8 21.7 0.00 0.00 0.00 91 1009.0
20221203043104 50 154 14.8 22.6 0.00 0.00 0.00 91 1008.9
20221203041601 50 154 14.8 21.7 0.00 0.00 0.00 91 1008.8
20221203040106 49 154 13.9 22.6 0.00 0.00 0.00 91 1008.7
20221203034600 49 154 17.4 22.6 0.00 0.00 0.00 91 1008.4
20221203033110 49 154 16.5 25.2 0.00 0.00 0.00 90 1008.1
20221203031556 49 154 16.5 25.2 0.00 0.00 0.00 90 1008.1
20221203030106 49 154 17.4 26.9 0.00 0.00 0.00 90 1007.9
20221203024638 49 154 17.4 26.9 0.00 0.00 0.00 89 1008.0
20221203023059 49 154 15.6 27.8 0.00 0.00 0.00 89 1007.9
20221203021600 49 154 20.9 31.3 0.00 0.00 0.00 89 1007.6
20221203020058 49 154 18.2 28.7 0.00 0.00 0.00 88 1007.2
20221203014605 49 154 17.4 25.2 0.00 0.00 0.00 87 1007.2
20221203013059 49 141 16.5 26.9 0.00 0.00 0.00 86 1007.2
20221203011558 49 139 17.4 26.9 0.00 0.00 0.00 85 1006.9
20221203010108 49 136 18.2 23.5 0.00 0.00 0.00 85 1006.9
20221203004558 49 135 15.6 23.5 0.00 0.00 0.00 84 1007.4
20221203003055 49 135 20.0 26.9 0.00 0.00 0.00 83 1006.5
20221203001558 50 134 15.6 26.9 0.00 0.00 0.00 82 1006.7
20221203000109 50 134 19.1 28.7 0.00 0.00 0.00 81 1006.2
20221202234606 51 134 20.0 25.2 0.00 0.00 0.00 80 1006.1
20221202233056 51 134 21.7 31.3 0.00 0.00 0.00 79 1006.4
20221202231607 51 134 18.2 31.3 0.00 0.00 0.00 77 1006.2
20221202230114 50 133 19.1 26.9 0.00 0.00 0.00 74 1006.1
20221202224558 51 134 18.2 29.5 0.00 0.00 0.00 72 1005.8
20221202223101 51 134 19.1 28.7 0.00 0.00 0.00 70 1005.9
20221202221602 52 134 18.2 30.4 0.00 0.00 0.00 70 1005.8
20221202220118 52 134 19.1 27.8 0.00 0.00 0.00 69 1006.0
20221202214602 52 134 17.4 26.1 0.00 0.00 0.00 67 1006.0
20221202213142 52 134 14.8 24.3 0.00 0.00 0.00 65 1006.4
20221202211605 52 134 16.5 24.3 0.00 0.00 0.00 65 1006.5
20221202210104 52 134 18.2 27.8 0.00 0.00 0.00 64 1006.6
20221202204605 52 134 14.8 26.9 0.00 0.00 0.00 65 1006.8
20221202203102 52 134 15.6 25.2 0.00 0.00 0.00 64 1007.2
20221202201606 52 133 16.5 24.3 0.00 0.00 0.00 63 1007.4
20221202200106 52 134 16.5 23.5 0.00 0.00 0.00 62 1007.8
20221202194601 51 134 15.6 22.6 0.00 0.00 0.00 60 1008.1
20221202193101 51 134 16.5 26.9 0.00 0.00 0.00 59 1008.3
20221202191600 51 136 19.1 29.5 0.00 0.00 0.00 57 1008.7
20221202190058 52 138 17.4 24.3 0.00 0.00 0.00 56 1009.0
20221202184613 50 131 15.6 24.3 0.00 0.00 0.00 59 1009.4
20221202183102 50 131 17.4 21.7 0.00 0.00 0.00 58 1009.6
20221202181603 49 131 14.8 20.9 0.00 0.00 0.00 59 1010.0
20221202180101 49 131 13.9 22.6 0.00 0.00 0.00 59 1010.4
20221202174600 47 130 13.9 19.1 0.00 0.00 0.00 61 1010.5
20221202173107 47 131 13.9 20.0 0.00 0.00 0.00 61 1010.9
20221202171603 47 131 14.8 20.9 0.00 0.00 0.00 61 1011.4
20221202170138 46 131 13.9 20.9 0.00 0.00 0.00 62 1012.1
20221202164605 46 131 13.0 20.0 0.00 0.00 0.00 63 1012.5
20221202163101 45 131 14.8 21.7 0.00 0.00 0.00 63 1013.0
20221202161608 44 130 14.8 20.9 0.00 0.00 0.00 65 1013.2
20221202160102 43 131 14.8 20.0 0.00 0.00 0.00 68 1013.8
20221202154603 41 131 14.8 19.1 0.00 0.00 0.00 70 1014.1
20221202153105 40 130 14.8 20.0 0.00 0.00 0.00 71 1014.1
20221202151601 40 131 13.0 20.0 0.00 0.00 0.00 73 1014.3
20221202150105 39 130 14.8 21.7 0.00 0.00 0.00 73 1014.4
20221202144556 39 133 15.6 20.9 0.00 0.00 0.00 72 1014.7
20221202143120 38 133 13.9 20.0 0.00 0.00 0.00 73 1014.7
20221202141601 38 134 12.2 20.9 0.00 0.00 0.00 73 1015.2
20221202140058 37 134 13.0 17.4 0.00 0.00 0.00 73 1015.5
20221202134556 37 134 12.2 18.2 0.00 0.00 0.00 72 1015.6
20221202133057 37 134 13.0 19.1 0.00 0.00 0.00 72 1016.0
20221202131614 37 134 12.2 18.2 0.00 0.00 0.00 72 1016.3
20221202130110 37 134 10.4 14.8 0.00 0.00 0.00 72 1016.3
20221202124606 37 134 9.6 14.8 0.00 0.00 0.00 70 1016.5
20221202123059 37 134 11.3 15.6 0.00 0.00 0.00 68 1016.8
20221202121559 37 134 9.6 13.9 0.00 0.00 0.00 69 1016.9
20221202120109 37 134 9.6 15.6 0.00 0.00 0.00 70 1017.1
20221202114557 37 134 11.3 14.8 0.00 0.00 0.00 70 1017.8
20221202113127 36 134 11.3 18.2 0.00 0.00 0.00 70 1017.6
20221202111616 36 134 12.2 16.5 0.00 0.00 0.00 70 1017.5
20221202110114 36 134 11.3 15.6 0.00 0.00 0.00 70 1017.7
20221202104601 36 134 11.3 15.6 0.00 0.00 0.00 70 1017.5
20221202103116 36 134 11.3 16.5 0.00 0.00 0.00 69 1017.5
20221202101557 36 134 10.4 17.4 0.00 0.00 0.00 69 1017.7
20221202100105 36 135 11.3 14.8 0.00 0.00 0.00 69 1018.1
20221202094600 36 136 10.4 13.0 0.00 0.00 0.00 70 1018.4
20221202093101 36 135 8.7 13.0 0.00 0.00 0.00 70 1018.6
20221202091603 36 135 7.8 13.9 0.00 0.00 0.00 71 1018.8
20221202090100 35 135 8.7 13.9 0.00 0.00 0.00 71 1019.3
20221202084601 35 135 9.6 13.9 0.00 0.00 0.00 72 1019.6
20221202083102 35 135 7.8 13.0 0.00 0.00 0.00 72 1019.4
20221202081602 35 135 8.7 14.8 0.00 0.00 0.00 71 1019.6
20221202080107 35 135 9.6 13.9 0.00 0.00 0.00 71 1019.7
20221202074559 35 135 9.6 13.0 0.00 0.00 0.00 70 1020.1
20221202073104 35 135 7.0 12.2 0.00 0.00 0.00 70 1020.5
20221202071556 35 136 7.0 11.3 0.00 0.00 0.00 69 1020.8
20221202070112 35 135 9.6 13.0 0.00 0.00 0.00 69 1020.6
20221202064601 35 135 9.6 15.6 0.00 0.00 0.00 69 1020.7
20221202063102 35 135 10.4 15.6 0.00 0.00 0.00 70 1020.6
20221202061600 35 135 10.4 14.8 0.00 0.00 0.00 70 1020.8
20221202060110 34 135 10.4 17.4 0.00 0.00 0.00 71 1021.3
20221202054557 34 135 12.2 15.6 0.00 0.00 0.00 72 1021.4
20221202053100 34 135 13.0 18.2 0.00 0.00 0.00 72 1021.4